ABS-3A

Last updated on Sat Apr 13 2024 01:02:38 GMT+0100 (British Summer Time)

1 40424U 15010A 24103.23384503 -.00000035 00000+0 00000+0 0 9996 2 40424 0.0116 242.5408 0001469 38.3351 1.2722 1.00270387 33392
UTC large
Height (km)
Speed (km/s)
/
Latitude / Longitude
Inclination (degrees)
Orbital Period (minutes)
Azimuth
Elevation
Range (km)
Doppler Factor

Next 0 passes for location: London (51.5072 / 0.1276)

Sorry there are no passes over London.